Location: Ajisawe
(8.4333°N, 4.3833°E)
Time: 00:35:03
(UTC+00:00)

Courier 1B Rocket - Pass Details

Date: 30 April 2021
Orbit: 920 x 1202 km, 28.3° (Epoch: 13 May)

Event Time Altitude Azimuth Distance (km) Brightness Sun altitude
Rises 00:52:52 0° 264° (W) 3,905 - -60.5°
Reaches altitude 10° 00:56:51 10° 244° (WSW) 3,002 - -59.9°
Maximum altitude 01:01:10 16° 208° (SSW) 2,616 - -59.2°
Drops below altitude 10° 01:05:35 10° 172° (S) 3,093 - -58.5°
Sets 01:09:49 0° 152° (SSE) 4,082 - -57.8°
